Overview Statistics Trail Chart Weather Telemetry Raw packets
 

This is the latest recevied weather packets stored in our database for station/object N5JXS. If no packets are shown the sender has not sent any weather packets the latest 10 day(s).

<< 94 95 96 97 98 99 100 >>
Time Temp. Humidity Pressure Rain* Wind** Luminosity Snow
1787922676 15° C 62% 1030.5 hPa 0 mm - 24 W/m² -
1787922375 15° C 60% 1030.5 hPa 0 mm - 22 W/m² -
1787922073 15° C 59% 1030.2 hPa 0 mm - 21 W/m² -
1787921773 15° C 61% 1030.2 hPa 0 mm - 17 W/m² -
1787921467 15° C 60% 1029.7 hPa 0 mm - 12 W/m² -
1787921162 15° C 57% 1030.2 hPa 0 mm - 10 W/m² -
1787920857 15° C 57% 1030 hPa 0 mm - 8 W/m² -
1787920557 15.56° C 55% 1030 hPa 0 mm - 5 W/m² -
1787920251 15.56° C 54% 1029.8 hPa 0 mm - 2 W/m² -
1787919944 15.56° C 52% 1029.8 hPa 0 mm - 0 W/m² -
1787919643 15.56° C 52% 1029.8 hPa 0 mm - 0 W/m² -
1787919333 16.11° C 52% 1029.6 hPa 0 mm - 0 W/m² -
1787919029 16.11° C 50% 1029.6 hPa 0 mm - 0 W/m² -
1787918724 16.67° C 50% 1029.8 hPa 0 mm - 0 W/m² -
1787918422 16.67° C 48% 1029.8 hPa 0 mm - 0 W/m² -
1787918116 16.67° C 49% 1030 hPa 0 mm - 0 W/m² -
1787917810 16.67° C 49% 1029.6 hPa 0 mm - 0 W/m² -
1787917507 16.67° C 48% 1029.6 hPa 0 mm - 0 W/m² -
1787917203 16.67° C 49% 1029.6 hPa 0 mm - 0 W/m² -
1787916902 16.11° C 50% 1029.7 hPa 0 mm - 0 W/m² -
1787916601 16.11° C 50% 1029.7 hPa 0 mm - 0 W/m² -
1787916296 16.11° C 51% 1029.8 hPa 0 mm - 0 W/m² -
1787915991 16.11° C 51% 1029.6 hPa 0 mm - 0 W/m² -
1787915687 16.11° C 52% 1029.5 hPa 0 mm - 0 W/m² -
1787915382 16.11° C 52% 1029.6 hPa 0 mm - 0 W/m² -

* Rain latest hour (hover to see other rain measurements)
** Current wind speed in m/s (hover to see current wind gust speed)